Time,TemperatureF,DewpointF,PressureIn,WindDirection,WindDirectionDegrees,WindSpeedMPH,WindSpeedGustMPH,Humidity,HourlyPrecipIn,Conditions,Clouds,dailyrainin,SoftwareType,DateUTC
2013-04-23 00:00:00,29.2,29.0,30.13,NNW,344,14.0,16.0,99,0.00,,,0.35,Wunderground v.1.15,2013-04-23 05:00:00,
2013-04-23 00:02:00,29.2,29.0,30.14,NNW,345,14.0,18.0,99,0.00,,,0.35,Wunderground v.1.15,2013-04-23 05:02:00,
2013-04-23 00:06:00,29.0,28.8,30.13,NNW,332,15.0,18.0,99,0.00,,,0.00,Wunderground v.1.15,2013-04-23 05:06:00,
2013-04-23 00:08:00,29.0,28.8,30.14,North,353,16.0,18.0,99,0.00,,,0.00,Wunderground v.1.15,2013-04-23 05:08:00,
2013-04-23 00:10:00,29.0,28.8,30.14,NNE,19,17.0,17.0,99,0.00,,,0.00,Wunderground v.1.15,2013-04-23 05:10:00,
2013-04-23 00:14:00,28.9,28.7,30.15,North,6,17.0,19.0,99,0.00,,,0.00,Wunderground v.1.15,2013-04-23 05:14:00,
2013-04-23 00:16:00,28.9,28.7,30.15,NNW,332,17.0,19.0,99,0.00,,,0.00,Wunderground v.1.15,2013-04-23 05:16:00,
2013-04-23 00:20:00,28.9,28.7,30.15,North,6,17.0,17.0,99,0.00,,,0.00,Wunderground v.1.15,2013-04-23 05:20:00,
2013-04-23 00:22:00,28.9,28.7,30.15,North,356,17.0,18.0,99,0.00,,,0.00,Wunderground v.1.15,2013-04-23 05:22:00,
2013-04-23 00:24:00,28.9,28.7,30.15,NNE,18,17.0,18.0,99,0.00,,,0.00,Wunderground v.1.15,2013-04-23 05:24:00,
2013-04-23 00:26:00,28.9,28.7,30.15,North,352,17.0,19.0,99,0.00,,,0.00,Wunderground v.1.15,2013-04-23 05:26:00,
2013-04-23 00:30:00,28.9,28.7,30.15,North,352,17.0,17.0,99,0.00,,,0.00,Wunderground v.1.15,2013-04-23 05:30:00,
2013-04-23 00:32:00,28.9,28.7,30.16,North,357,16.0,19.0,99,0.00,,,0.00,Wunderground v.1.15,2013-04-23 05:32:00,
2013-04-23 00:36:00,28.8,28.6,30.15,North,354,17.0,19.0,99,0.00,,,0.00,Wunderground v.1.15,2013-04-23 05:36:00,
2013-04-23 00:40:00,28.8,28.6,30.15,NNE,29,17.0,21.0,99,0.00,,,0.00,Wunderground v.1.15,2013-04-23 05:40:00,
2013-04-23 00:42:00,28.7,28.5,30.15,North,357,18.0,21.0,99,0.00,,,0.00,Wunderground v.1.15,2013-04-23 05:42:00,
2013-04-23 00:44:00,28.7,28.5,30.15,North,4,18.0,21.0,99,0.00,,,0.00,Wunderground v.1.15,2013-04-23 05:44:00,
2013-04-23 00:46:00,28.7,28.5,30.15,North,359,18.0,21.0,99,0.00,,,0.00,Wunderground v.1.15,2013-04-23 05:46:00,
2013-04-23 00:52:00,28.6,28.4,30.14,North,355,18.0,18.0,99,0.00,,,0.00,Wunderground v.1.15,2013-04-23 05:52:00,
2013-04-23 00:56:00,28.6,28.4,30.13,NNW,344,18.0,19.0,99,0.00,,,0.00,Wunderground v.1.15,2013-04-23 05:56:00,
2013-04-23 00:58:00,28.5,28.3,30.14,North,5,18.0,19.0,99,0.00,,,0.00,Wunderground v.1.15,2013-04-23 05:58:00,
2013-04-23 01:00:00,28.5,28.3,30.13,NNE,12,18.0,21.0,99,0.00,,,0.00,Wunderground v.1.15,2013-04-23 06:00:00,
2013-04-23 01:02:00,28.4,28.2,30.14,NNW,338,18.0,24.0,99,0.00,,,0.00,Wunderground v.1.15,2013-04-23 06:02:00,
2013-04-23 01:08:00,28.3,28.1,30.14,NNE,13,16.0,24.0,99,0.00,,,0.00,Wunderground v.1.15,2013-04-23 06:08:00,
2013-04-23 01:10:00,28.2,28.0,30.14,NNW,332,17.0,24.0,99,0.00,,,0.00,Wunderground v.1.15,2013-04-23 06:10:00,
2013-04-23 01:12:00,28.1,27.9,30.14,NNW,347,17.0,24.0,99,0.00,,,0.00,Wunderground v.1.15,2013-04-23 06:12:00,
2013-04-23 01:14:00,28.1,27.9,30.15,NNW,344,16.0,24.0,99,0.00,,,0.00,Wunderground v.1.15,2013-04-23 06:14:00,
2013-04-23 01:16:00,28.0,27.5,30.15,NNW,332,16.0,24.0,98,0.00,,,0.00,Wunderground v.1.15,2013-04-23 06:16:00,
2013-04-23 01:20:00,28.0,27.5,30.15,North,352,16.0,24.0,98,0.00,,,0.00,Wunderground v.1.15,2013-04-23 06:20:00,
2013-04-23 01:22:00,28.0,27.5,30.16,NNW,339,16.0,24.0,98,0.00,,,0.00,Wunderground v.1.15,2013-04-23 06:22:00,
2013-04-23 01:24:00,27.9,27.4,30.16,NNW,337,16.0,24.0,98,0.00,,,0.00,Wunderground v.1.15,2013-04-23 06:24:00,
2013-04-23 01:26:00,27.9,27.4,30.16,NNW,333,15.0,24.0,98,0.00,,,0.00,Wunderground v.1.15,2013-04-23 06:26:00,
2013-04-23 01:30:00,27.8,27.3,30.17,NNW,328,14.0,24.0,98,0.00,,,0.00,Wunderground v.1.15,2013-04-23 06:30:00,
2013-04-23 01:32:00,27.8,27.3,30.17,NNE,13,14.0,24.0,98,0.00,,,0.00,Wunderground v.1.15,2013-04-23 06:32:00,
2013-04-23 01:36:00,27.8,27.3,30.17,NNW,332,14.0,24.0,98,0.00,,,0.00,Wunderground v.1.15,2013-04-23 06:36:00,
2013-04-23 01:38:00,27.8,27.3,30.17,NNW,333,14.0,24.0,98,0.00,,,0.00,Wunderground v.1.15,2013-04-23 06:38:00,
2013-04-23 01:40:00,27.7,27.2,30.17,NNW,344,14.0,24.0,98,0.00,,,0.00,Wunderground v.1.15,2013-04-23 06:40:00,
2013-04-23 01:42:00,27.6,27.1,30.17,NNW,343,14.0,24.0,98,0.00,,,0.00,Wunderground v.1.15,2013-04-23 06:42:00,
2013-04-23 01:44:00,27.5,27.0,30.17,NW,320,14.0,24.0,98,0.00,,,0.00,Wunderground v.1.15,2013-04-23 06:44:00,
2013-04-23 01:46:00,27.5,27.0,30.17,NNW,333,14.0,24.0,98,0.00,,,0.00,Wunderground v.1.15,2013-04-23 06:46:00,
2013-04-23 01:48:00,27.4,26.9,30.18,North,354,14.0,24.0,98,0.00,,,0.00,Wunderground v.1.15,2013-04-23 06:48:00,
2013-04-23 01:50:00,27.4,26.9,30.17,NNW,334,14.0,24.0,98,0.00,,,0.00,Wunderground v.1.15,2013-04-23 06:50:00,
2013-04-23 01:54:00,27.3,26.8,30.17,NW,324,15.0,24.0,98,0.00,,,0.00,Wunderground v.1.15,2013-04-23 06:54:00,
2013-04-23 01:58:00,27.2,26.7,30.16,NNW,334,15.0,24.0,98,0.00,,,0.00,Wunderground v.1.15,2013-04-23 06:58:00,
2013-04-23 02:00:00,27.2,26.7,30.16,NNW,346,15.0,15.0,98,0.00,,,0.00,Wunderground v.1.15,2013-04-23 07:00:00,
2013-04-23 02:06:00,27.1,26.6,30.16,North,358,14.0,24.0,98,0.00,,,0.00,Wunderground v.1.15,2013-04-23 07:06:00,
2013-04-23 02:08:00,27.1,26.6,30.16,North,6,14.0,24.0,98,0.00,,,0.00,Wunderground v.1.15,2013-04-23 07:08:00,
2013-04-23 02:12:00,27.0,26.5,30.15,NNW,333,15.0,24.0,98,0.00,,,0.00,Wunderground v.1.15,2013-04-23 07:12:00,
2013-04-23 02:14:00,27.1,26.6,30.15,NE,36,15.0,24.0,98,0.00,,,0.00,Wunderground v.1.15,2013-04-23 07:14:00,
2013-04-23 02:17:00,27.0,26.5,30.15,NNE,13,15.0,24.0,98,0.00,,,0.00,Wunderground v.1.15,2013-04-23 07:17:00,
2013-04-23 02:19:00,27.0,26.5,30.15,North,349,16.0,16.0,98,0.00,,,0.00,Wunderground v.1.15,2013-04-23 07:19:00,
2013-04-23 02:26:00,26.9,26.4,30.15,NNW,335,15.0,24.0,98,0.00,,,0.00,Wunderground v.1.15,2013-04-23 07:26:00,
2013-04-23 02:30:00,26.9,26.4,30.16,NNW,334,15.0,15.0,98,0.00,,,0.00,Wunderground v.1.15,2013-04-23 07:30:00,
2013-04-23 02:32:00,26.9,26.4,30.16,NNW,342,16.0,16.0,98,0.00,,,0.00,Wunderground v.1.15,2013-04-23 07:32:00,
2013-04-23 02:36:00,26.9,26.4,30.16,North,6,16.0,24.0,98,0.00,,,0.00,Wunderground v.1.15,2013-04-23 07:36:00,
2013-04-23 02:37:00,26.9,26.4,30.16,North,9,16.0,24.0,98,0.00,,,0.00,Wunderground v.1.15,2013-04-23 07:37:00,
2013-04-23 02:42:00,26.8,26.3,30.16,NNE,13,17.0,24.0,98,0.00,,,0.00,Wunderground v.1.15,2013-04-23 07:42:00,
2013-04-23 02:44:00,26.8,26.3,30.15,North,349,17.0,24.0,98,0.00,,,0.00,Wunderground v.1.15,2013-04-23 07:44:00,
2013-04-23 02:46:00,26.7,26.2,30.15,North,3,17.0,24.0,98,0.00,,,0.00,Wunderground v.1.15,2013-04-23 07:46:00,
2013-04-23 02:48:00,26.7,26.2,30.15,North,355,18.0,24.0,98,0.00,,,0.00,Wunderground v.1.15,2013-04-23 07:48:00,
2013-04-23 02:50:00,26.7,26.2,30.15,North,350,17.0,24.0,98,0.00,,,0.00,Wunderground v.1.15,2013-04-23 07:50:00,
2013-04-23 02:52:00,26.7,26.2,30.14,NNW,334,17.0,24.0,98,0.00,,,0.00,Wunderground v.1.15,2013-04-23 07:52:00,
2013-04-23 02:54:00,26.7,26.2,30.14,NNW,344,17.0,24.0,98,0.00,,,0.00,Wunderground v.1.15,2013-04-23 07:54:00,
2013-04-23 02:56:00,26.6,26.1,30.14,North,350,17.0,24.0,98,0.00,,,0.00,Wunderground v.1.15,2013-04-23 07:56:00,
2013-04-23 02:59:00,26.6,26.1,30.13,NNW,344,17.0,17.0,98,0.00,,,0.00,Wunderground v.1.15,2013-04-23 07:59:00,
2013-04-23 03:01:00,26.5,25.8,30.12,NNE,21,17.0,24.0,97,0.00,,,0.00,Wunderground v.1.15,2013-04-23 08:01:00,
2013-04-23 03:06:00,26.5,25.8,30.12,North,11,16.0,24.0,97,0.00,,,0.00,Wunderground v.1.15,2013-04-23 08:06:00,
2013-04-23 03:10:00,26.3,25.6,30.13,NNW,345,17.0,24.0,97,0.00,,,0.00,Wunderground v.1.15,2013-04-23 08:10:00,
2013-04-23 03:14:00,26.2,25.5,30.13,NNE,27,17.0,24.0,97,0.00,,,0.00,Wunderground v.1.15,2013-04-23 08:14:00,
2013-04-23 03:16:00,26.2,25.5,30.13,North,352,17.0,24.0,97,0.00,,,0.00,Wunderground v.1.15,2013-04-23 08:16:00,
2013-04-23 03:19:00,26.0,25.3,30.14,North,6,17.0,24.0,97,0.00,,,0.00,Wunderground v.1.15,2013-04-23 08:19:00,
2013-04-23 03:21:00,26.0,25.3,30.14,NNW,340,17.0,24.0,97,0.00,,,0.00,Wunderground v.1.15,2013-04-23 08:21:00,
2013-04-23 03:26:00,25.9,25.2,30.15,North,352,16.0,24.0,97,0.00,,,0.00,Wunderground v.1.15,2013-04-23 08:26:00,
2013-04-23 03:28:00,25.9,25.2,30.15,NNW,342,16.0,24.0,97,0.00,,,0.00,Wunderground v.1.15,2013-04-23 08:28:00,
2013-04-23 03:30:00,25.9,25.2,30.14,North,352,15.0,24.0,97,0.00,,,0.00,Wunderground v.1.15,2013-04-23 08:30:00,
2013-04-23 03:32:00,25.9,25.2,30.14,NNW,344,15.0,24.0,97,0.00,,,0.00,Wunderground v.1.15,2013-04-23 08:32:00,
2013-04-23 03:34:00,25.9,25.2,30.14,North,8,14.0,24.0,97,0.00,,,0.00,Wunderground v.1.15,2013-04-23 08:34:00,
2013-04-23 03:38:00,25.8,25.1,30.14,North,9,15.0,24.0,97,0.00,,,0.00,Wunderground v.1.15,2013-04-23 08:38:00,
2013-04-23 03:40:00,25.8,25.1,30.14,North,3,15.0,15.0,97,0.00,,,0.00,Wunderground v.1.15,2013-04-23 08:40:00,
2013-04-23 03:42:00,25.7,25.0,30.14,North,4,15.0,16.0,97,0.00,,,0.00,Wunderground v.1.15,2013-04-23 08:42:00,
2013-04-23 03:43:00,25.7,25.0,30.15,North,352,15.0,24.0,97,0.00,,,0.00,Wunderground v.1.15,2013-04-23 08:43:00,
2013-04-23 03:48:00,25.5,24.8,30.16,NNW,333,14.0,24.0,97,0.00,,,0.00,Wunderground v.1.15,2013-04-23 08:48:00,
2013-04-23 03:52:00,25.5,24.8,30.16,North,352,13.0,24.0,97,0.00,,,0.00,Wunderground v.1.15,2013-04-23 08:52:00,
2013-04-23 03:54:00,25.4,24.7,30.16,North,352,13.0,24.0,97,0.00,,,0.00,Wunderground v.1.15,2013-04-23 08:54:00,
2013-04-23 04:00:00,25.3,24.6,30.16,North,355,14.0,24.0,97,0.00,,,0.00,Wunderground v.1.15,2013-04-23 09:00:00,
2013-04-23 04:02:00,25.2,24.2,30.15,NNW,348,14.0,24.0,96,0.00,,,0.00,Wunderground v.1.15,2013-04-23 09:02:00,
2013-04-23 04:08:00,25.1,24.1,30.16,NNW,334,15.0,24.0,96,0.00,,,0.00,Wunderground v.1.15,2013-04-23 09:08:00,
2013-04-23 04:10:00,25.0,24.0,30.16,NW,326,15.0,15.0,96,0.00,,,0.00,Wunderground v.1.15,2013-04-23 09:10:00,
2013-04-23 04:16:00,24.9,23.9,30.16,NNW,338,14.0,24.0,96,0.00,,,0.00,Wunderground v.1.15,2013-04-23 09:16:00,
2013-04-23 04:18:00,24.9,23.9,30.17,NNW,340,13.0,24.0,96,0.00,,,0.00,Wunderground v.1.15,2013-04-23 09:18:00,
2013-04-23 04:20:00,24.9,23.9,30.17,NNW,342,13.0,24.0,96,0.00,,,0.00,Wunderground v.1.15,2013-04-23 09:20:00,
2013-04-23 04:25:00,24.9,23.9,30.18,NNW,335,13.0,24.0,96,0.00,,,0.00,Wunderground v.1.15,2013-04-23 09:25:00,
2013-04-23 04:27:00,24.9,23.9,30.18,North,352,13.0,24.0,96,0.00,,,0.00,Wunderground v.1.15,2013-04-23 09:27:00,
2013-04-23 04:30:00,24.9,23.9,30.18,NNW,334,13.0,13.0,96,0.00,,,0.00,Wunderground v.1.15,2013-04-23 09:30:00,
2013-04-23 04:32:00,24.9,23.9,30.18,NNW,337,12.0,15.0,96,0.00,,,0.00,Wunderground v.1.15,2013-04-23 09:32:00,
2013-04-23 04:36:00,24.8,23.8,30.18,NNW,339,12.0,24.0,96,0.00,,,0.00,Wunderground v.1.15,2013-04-23 09:36:00,
2013-04-23 04:38:00,24.8,23.8,30.18,NNW,340,11.0,24.0,96,0.00,,,0.00,Wunderground v.1.15,2013-04-23 09:38:00,
2013-04-23 04:42:00,24.7,23.7,30.17,NNW,334,11.0,24.0,96,0.00,,,0.00,Wunderground v.1.15,2013-04-23 09:42:00,
2013-04-23 04:44:00,24.7,23.7,30.16,North,350,11.0,24.0,96,0.00,,,0.00,Wunderground v.1.15,2013-04-23 09:44:00,
2013-04-23 04:45:00,24.8,23.8,30.16,NNW,328,11.0,24.0,96,0.00,,,0.00,Wunderground v.1.15,2013-04-23 09:45:00,
2013-04-23 04:47:00,24.8,23.8,30.16,NNW,336,11.0,24.0,96,0.00,,,0.00,Wunderground v.1.15,2013-04-23 09:47:00,
2013-04-23 04:50:00,24.7,23.7,30.16,NW,324,12.0,12.0,96,0.00,,,0.00,Wunderground v.1.15,2013-04-23 09:50:00,
2013-04-23 04:52:00,24.7,23.7,30.17,NNW,333,12.0,24.0,96,0.00,,,0.00,Wunderground v.1.15,2013-04-23 09:52:00,
2013-04-23 04:54:00,24.7,23.5,30.17,North,349,12.0,24.0,95,0.00,,,0.00,Wunderground v.1.15,2013-04-23 09:54:00,
2013-04-23 04:56:00,24.7,23.5,30.17,NNW,338,12.0,24.0,95,0.00,,,0.00,Wunderground v.1.15,2013-04-23 09:56:00,
2013-04-23 04:58:00,24.6,23.4,30.18,NNW,340,11.0,24.0,95,0.00,,,0.00,Wunderground v.1.15,2013-04-23 09:58:00,
2013-04-23 05:00:00,24.6,23.4,30.18,NNW,330,12.0,12.0,95,0.00,,,0.00,Wunderground v.1.15,2013-04-23 10:00:00,
2013-04-23 05:02:00,24.5,23.3,30.18,NNW,333,12.0,13.0,95,0.00,,,0.00,Wunderground v.1.15,2013-04-23 10:02:00,
2013-04-23 05:04:00,24.5,23.3,30.18,NNW,332,11.0,24.0,95,0.00,,,0.00,Wunderground v.1.15,2013-04-23 10:04:00,
2013-04-23 05:06:00,24.4,23.2,30.18,NNW,344,12.0,24.0,95,0.00,,,0.00,Wunderground v.1.15,2013-04-23 10:06:00,
2013-04-23 05:09:00,24.4,23.2,30.16,North,352,13.0,13.0,95,0.00,,,0.00,Wunderground v.1.15,2013-04-23 10:09:00,
2013-04-23 05:12:00,24.4,23.2,30.17,North,356,12.0,14.0,95,0.00,,,0.00,Wunderground v.1.15,2013-04-23 10:12:00,
2013-04-23 05:16:00,24.4,23.2,30.17,NNW,336,13.0,24.0,95,0.00,,,0.00,Wunderground v.1.15,2013-04-23 10:16:00,
2013-04-23 05:20:00,24.3,23.1,30.18,North,354,12.0,24.0,95,0.00,,,0.00,Wunderground v.1.15,2013-04-23 10:20:00,
2013-04-23 05:22:00,24.3,23.1,30.18,NNW,342,13.0,24.0,95,0.00,,,0.00,Wunderground v.1.15,2013-04-23 10:22:00,
2013-04-23 05:24:00,24.3,22.8,30.18,NNW,339,12.0,24.0,94,0.00,,,0.00,Wunderground v.1.15,2013-04-23 10:24:00,
2013-04-23 05:26:00,24.3,22.8,30.19,NNW,337,12.0,24.0,94,0.00,,,0.00,Wunderground v.1.15,2013-04-23 10:26:00,
2013-04-23 05:27:00,24.2,22.7,30.19,NNW,336,11.0,24.0,94,0.00,,,0.00,Wunderground v.1.15,2013-04-23 10:27:00,
2013-04-23 05:29:00,24.2,22.7,30.18,North,358,11.0,11.0,94,0.00,,,0.00,Wunderground v.1.15,2013-04-23 10:29:00,
2013-04-23 05:31:00,24.2,23.0,30.18,NNW,337,10.0,24.0,95,0.00,,,0.00,Wunderground v.1.15,2013-04-23 10:31:00,
2013-04-23 05:36:00,24.1,22.9,30.17,NNW,345,9.0,24.0,95,0.00,,,0.00,Wunderground v.1.15,2013-04-23 10:36:00,
2013-04-23 05:38:00,24.1,22.6,30.17,NNW,333,10.0,24.0,94,0.00,,,0.00,Wunderground v.1.15,2013-04-23 10:38:00,
2013-04-23 05:40:00,24.0,22.5,30.17,NNW,337,10.0,24.0,94,0.00,,,0.00,Wunderground v.1.15,2013-04-23 10:40:00,
2013-04-23 05:44:00,23.9,22.4,30.17,NNE,19,11.0,24.0,94,0.00,,,0.00,Wunderground v.1.15,2013-04-23 10:44:00,
2013-04-23 05:46:00,23.9,22.4,30.18,NNW,340,11.0,24.0,94,0.00,,,0.00,Wunderground v.1.15,2013-04-23 10:46:00,
2013-04-23 05:48:00,23.8,22.3,30.18,NNW,334,11.0,24.0,94,0.00,,,0.00,Wunderground v.1.15,2013-04-23 10:48:00,
2013-04-23 05:49:00,23.8,22.3,30.18,North,359,11.0,24.0,94,0.00,,,0.00,Wunderground v.1.15,2013-04-23 10:49:00,
2013-04-23 05:51:00,23.8,22.3,30.18,North,360,11.0,24.0,94,0.00,,,0.00,Wunderground v.1.15,2013-04-23 10:51:00,
2013-04-23 05:54:00,23.7,22.2,30.18,NNW,333,12.0,24.0,94,0.00,,,0.00,Wunderground v.1.15,2013-04-23 10:54:00,
2013-04-23 05:56:00,23.7,22.2,30.18,North,352,13.0,24.0,94,0.00,,,0.00,Wunderground v.1.15,2013-04-23 10:56:00,
2013-04-23 05:58:00,23.7,22.2,30.17,NNW,338,13.0,24.0,94,0.00,,,0.00,Wunderground v.1.15,2013-04-23 10:58:00,
2013-04-23 06:00:00,23.7,22.0,30.17,NNW,347,13.0,13.0,93,0.00,,,0.00,Wunderground v.1.15,2013-04-23 11:00:00,
2013-04-23 06:02:00,23.7,22.0,30.16,NNW,346,13.0,24.0,93,0.00,,,0.00,Wunderground v.1.15,2013-04-23 11:02:00,
2013-04-23 06:04:00,23.6,21.9,30.16,North,352,13.0,24.0,93,0.00,,,0.00,Wunderground v.1.15,2013-04-23 11:04:00,
2013-04-23 06:08:00,23.6,21.9,30.16,NNW,346,14.0,24.0,93,0.00,,,0.00,Wunderground v.1.15,2013-04-23 11:08:00,
2013-04-23 06:13:00,23.4,21.7,30.17,NNW,329,14.0,24.0,93,0.00,,,0.00,Wunderground v.1.15,2013-04-23 11:13:00,
2013-04-23 06:16:00,23.4,21.7,30.17,NNW,339,13.0,24.0,93,0.00,,,0.00,Wunderground v.1.15,2013-04-23 11:16:00,
2013-04-23 06:18:00,23.3,21.6,30.17,NNW,337,13.0,24.0,93,0.00,,,0.00,Wunderground v.1.15,2013-04-23 11:18:00,
2013-04-23 06:20:00,23.3,21.6,30.17,NNW,337,13.0,24.0,93,0.00,,,0.00,Wunderground v.1.15,2013-04-23 11:20:00,
2013-04-23 06:26:00,23.2,21.5,30.17,North,356,12.0,24.0,93,0.00,,,0.00,Wunderground v.1.15,2013-04-23 11:26:00,
2013-04-23 06:30:00,23.1,21.4,30.17,NNW,338,13.0,13.0,93,0.00,,,0.00,Wunderground v.1.15,2013-04-23 11:30:00,
2013-04-23 06:31:00,23.1,21.4,30.17,NNW,345,12.0,24.0,93,0.00,,,0.00,Wunderground v.1.15,2013-04-23 11:31:00,
2013-04-23 06:35:00,23.1,21.4,30.16,North,4,13.0,24.0,93,0.00,,,0.00,Wunderground v.1.15,2013-04-23 11:35:00,
2013-04-23 06:38:00,23.1,21.4,30.16,NNW,338,13.0,24.0,93,0.00,,,0.00,Wunderground v.1.15,2013-04-23 11:38:00,
2013-04-23 06:40:00,23.1,21.1,30.17,NNW,336,12.0,24.0,92,0.00,,,0.00,Wunderground v.1.15,2013-04-23 11:40:00,
2013-04-23 06:42:00,23.0,21.0,30.17,NNW,343,13.0,24.0,92,0.00,,,0.00,Wunderground v.1.15,2013-04-23 11:42:00,
2013-04-23 06:46:00,23.0,21.0,30.17,NW,316,12.0,24.0,92,0.00,,,0.00,Wunderground v.1.15,2013-04-23 11:46:00,
2013-04-23 06:52:00,22.9,20.9,30.17,NNW,334,13.0,24.0,92,0.00,,,0.00,Wunderground v.1.15,2013-04-23 11:52:00,
2013-04-23 06:53:00,22.9,20.9,30.17,NNW,338,14.0,24.0,92,0.00,,,0.00,Wunderground v.1.15,2013-04-23 11:53:00,
2013-04-23 06:58:00,22.8,20.8,30.16,NNW,329,13.0,24.0,92,0.00,,,0.00,Wunderground v.1.15,2013-04-23 11:58:00,
2013-04-23 07:00:00,22.8,20.8,30.16,North,354,13.0,24.0,92,0.00,,,0.00,Wunderground v.1.15,2013-04-23 12:00:00,
2013-04-23 07:04:00,22.7,20.7,30.16,NNW,334,13.0,24.0,92,0.00,,,0.00,Wunderground v.1.15,2013-04-23 12:04:00,
2013-04-23 07:06:00,22.7,20.7,30.16,North,11,13.0,24.0,92,0.00,,,0.00,Wunderground v.1.15,2013-04-23 12:06:00,
2013-04-23 07:10:00,22.7,20.7,30.16,NNW,344,12.0,24.0,92,0.00,,,0.00,Wunderground v.1.15,2013-04-23 12:10:00,
2013-04-23 07:15:00,22.7,20.7,30.16,NNW,334,12.0,24.0,92,0.00,,,0.00,Wunderground v.1.15,2013-04-23 12:15:00,
2013-04-23 07:17:00,22.7,20.7,30.16,NNW,347,12.0,24.0,92,0.00,,,0.00,Wunderground v.1.15,2013-04-23 12:17:00,
2013-04-23 07:20:00,22.7,20.5,30.16,North,352,13.0,24.0,91,0.00,,,0.00,Wunderground v.1.15,2013-04-23 12:20:00,
2013-04-23 07:22:00,22.7,20.7,30.16,NNW,342,13.0,24.0,92,0.00,,,0.00,Wunderground v.1.15,2013-04-23 12:22:00,
2013-04-23 07:24:00,22.7,20.7,30.16,NNE,17,13.0,24.0,92,0.00,,,0.00,Wunderground v.1.15,2013-04-23 12:24:00,
2013-04-23 07:26:00,22.7,20.7,30.17,North,354,13.0,24.0,92,0.00,,,0.00,Wunderground v.1.15,2013-04-23 12:26:00,
2013-04-23 07:28:00,22.8,20.8,30.17,NNW,335,13.0,24.0,92,0.00,,,0.00,Wunderground v.1.15,2013-04-23 12:28:00,
2013-04-23 07:32:00,22.8,20.8,30.17,NNW,342,13.0,24.0,92,0.00,,,0.00,Wunderground v.1.15,2013-04-23 12:32:00,
2013-04-23 07:34:00,22.9,20.7,30.17,NNW,347,13.0,24.0,91,0.00,,,0.00,Wunderground v.1.15,2013-04-23 12:34:00,
2013-04-23 07:35:00,22.9,20.9,30.17,NNW,336,13.0,24.0,92,0.00,,,0.00,Wunderground v.1.15,2013-04-23 12:35:00,
2013-04-23 07:37:00,22.9,20.9,30.17,NNW,335,14.0,24.0,92,0.00,,,0.00,Wunderground v.1.15,2013-04-23 12:37:00,
2013-04-23 07:44:00,23.1,20.9,30.18,NNW,342,13.0,24.0,91,0.00,,,0.00,Wunderground v.1.15,2013-04-23 12:44:00,
2013-04-23 07:46:00,23.1,20.9,30.18,NNE,25,13.0,24.0,91,0.00,,,0.00,Wunderground v.1.15,2013-04-23 12:46:00,
2013-04-23 07:48:00,23.2,21.0,30.18,NNW,328,13.0,24.0,91,0.00,,,0.00,Wunderground v.1.15,2013-04-23 12:48:00,
2013-04-23 07:50:00,23.2,21.0,30.18,North,350,13.0,13.0,91,0.00,,,0.00,Wunderground v.1.15,2013-04-23 12:50:00,
2013-04-23 07:52:00,23.3,21.1,30.18,NNW,337,13.0,24.0,91,0.00,,,0.00,Wunderground v.1.15,2013-04-23 12:52:00,
2013-04-23 07:54:00,23.4,21.2,30.18,North,355,12.0,24.0,91,0.00,,,0.00,Wunderground v.1.15,2013-04-23 12:54:00,
2013-04-23 07:56:00,23.4,21.4,30.18,North,9,12.0,24.0,92,0.00,,,0.00,Wunderground v.1.15,2013-04-23 12:56:00,
2013-04-23 07:57:00,23.5,21.5,30.18,NNE,15,12.0,24.0,92,0.00,,,0.00,Wunderground v.1.15,2013-04-23 12:57:00,
2013-04-23 08:02:00,23.5,21.3,30.18,NNW,342,12.0,13.0,91,0.00,,,0.00,Wunderground v.1.15,2013-04-23 13:02:00,
2013-04-23 08:04:00,23.6,21.6,30.18,NNW,335,12.0,24.0,92,0.00,,,0.00,Wunderground v.1.15,2013-04-23 13:04:00,
2013-04-23 08:06:00,23.6,21.6,30.18,NNW,342,13.0,24.0,92,0.00,,,0.00,Wunderground v.1.15,2013-04-23 13:06:00,
2013-04-23 08:12:00,23.6,21.6,30.18,NW,325,13.0,24.0,92,0.00,,,0.00,Wunderground v.1.15,2013-04-23 13:12:00,
2013-04-23 08:14:00,23.6,21.4,30.18,NNW,347,13.0,24.0,91,0.00,,,0.00,Wunderground v.1.15,2013-04-23 13:14:00,
2013-04-23 08:16:00,23.5,21.3,30.18,NNW,346,12.0,24.0,91,0.00,,,0.00,Wunderground v.1.15,2013-04-23 13:16:00,
2013-04-23 08:18:00,23.5,21.3,30.18,NNE,16,12.0,24.0,91,0.00,,,0.00,Wunderground v.1.15,2013-04-23 13:18:00,
2013-04-23 08:22:00,23.6,21.6,30.18,North,354,12.0,24.0,92,0.00,,,0.00,Wunderground v.1.15,2013-04-23 13:22:00,
2013-04-23 08:24:00,23.6,21.6,30.18,NNW,344,12.0,24.0,92,0.00,,,0.00,Wunderground v.1.15,2013-04-23 13:24:00,
2013-04-23 08:28:00,23.8,21.8,30.18,NNE,18,12.0,24.0,92,0.00,,,0.00,Wunderground v.1.15,2013-04-23 13:28:00,
2013-04-23 08:30:00,23.9,21.9,30.18,North,354,12.0,24.0,92,0.00,,,0.00,Wunderground v.1.15,2013-04-23 13:30:00,
2013-04-23 08:34:00,24.0,21.8,30.19,NE,42,13.0,24.0,91,0.00,,,0.00,Wunderground v.1.15,2013-04-23 13:34:00,
2013-04-23 08:36:00,24.0,21.8,30.19,North,360,13.0,24.0,91,0.00,,,0.00,Wunderground v.1.15,2013-04-23 13:36:00,
2013-04-23 08:40:00,24.2,22.0,30.18,NNW,347,12.0,12.0,91,0.00,,,0.00,Wunderground v.1.15,2013-04-23 13:40:00,
2013-04-23 08:41:00,24.2,22.0,30.18,NNW,342,12.0,15.0,91,0.00,,,0.00,Wunderground v.1.15,2013-04-23 13:41:00,
2013-04-23 08:43:00,24.2,22.0,30.18,NNE,13,12.0,24.0,91,0.00,,,0.00,Wunderground v.1.15,2013-04-23 13:43:00,
2013-04-23 08:48:00,24.0,21.8,30.18,NNW,338,14.0,24.0,91,0.00,,,0.00,Wunderground v.1.15,2013-04-23 13:48:00,
2013-04-23 08:50:00,24.1,21.9,30.18,NNE,23,14.0,24.0,91,0.00,,,0.00,Wunderground v.1.15,2013-04-23 13:50:00,
2013-04-23 08:54:00,24.2,22.0,30.18,NNW,340,14.0,24.0,91,0.00,,,0.00,Wunderground v.1.15,2013-04-23 13:54:00,
2013-04-23 08:56:00,24.3,22.1,30.18,North,349,13.0,24.0,91,0.00,,,0.00,Wunderground v.1.15,2013-04-23 13:56:00,
2013-04-23 09:00:00,24.5,22.2,30.18,North,354,12.0,24.0,91,0.00,,,0.00,Wunderground v.1.15,2013-04-23 14:00:00,
2013-04-23 09:01:00,24.5,22.0,30.18,NW,326,12.0,24.0,90,0.00,,,0.00,Wunderground v.1.15,2013-04-23 14:01:00,
2013-04-23 09:06:00,24.6,22.1,30.18,NNW,342,13.0,24.0,90,0.00,,,0.00,Wunderground v.1.15,2013-04-23 14:06:00,
2013-04-23 09:07:00,24.7,22.2,30.18,NNW,330,13.0,24.0,90,0.00,,,0.00,Wunderground v.1.15,2013-04-23 14:07:00,
2013-04-23 09:14:00,25.1,22.6,30.18,NNW,338,12.0,24.0,90,0.00,,,0.00,Wunderground v.1.15,2013-04-23 14:14:00,
2013-04-23 09:16:00,25.1,22.6,30.19,NNW,333,12.0,24.0,90,0.00,,,0.00,Wunderground v.1.15,2013-04-23 14:16:00,
2013-04-23 09:18:00,25.2,22.4,30.19,NNW,336,12.0,24.0,89,0.00,,,0.00,Wunderground v.1.15,2013-04-23 14:18:00,
2013-04-23 09:22:00,25.3,22.8,30.18,North,7,12.0,14.0,90,0.00,,,0.00,Wunderground v.1.15,2013-04-23 14:22:00,
2013-04-23 09:26:00,25.5,22.7,30.18,NNW,340,13.0,24.0,89,0.00,,,0.00,Wunderground v.1.15,2013-04-23 14:26:00,
2013-04-23 09:27:00,25.5,22.7,30.18,North,3,13.0,24.0,89,0.00,,,0.00,Wunderground v.1.15,2013-04-23 14:27:00,
2013-04-23 09:29:00,25.5,22.7,30.17,NNE,14,13.0,24.0,89,0.00,,,0.00,Wunderground v.1.15,2013-04-23 14:29:00,
2013-04-23 09:36:00,25.6,22.8,30.18,NNW,338,14.0,24.0,89,0.00,,,0.00,Wunderground v.1.15,2013-04-23 14:36:00,
2013-04-23 09:38:00,25.7,22.9,30.17,NNW,332,14.0,24.0,89,0.00,,,0.00,Wunderground v.1.15,2013-04-23 14:38:00,
2013-04-23 09:40:00,25.8,23.0,30.17,NNE,18,14.0,24.0,89,0.00,,,0.00,Wunderground v.1.15,2013-04-23 14:40:00,
2013-04-23 09:42:00,25.8,23.0,30.17,North,359,14.0,24.0,89,0.00,,,0.00,Wunderground v.1.15,2013-04-23 14:42:00,
2013-04-23 09:44:00,25.9,23.1,30.17,NNW,332,14.0,24.0,89,0.00,,,0.00,Wunderground v.1.15,2013-04-23 14:44:00,
2013-04-23 09:48:00,25.9,22.8,30.17,North,357,14.0,24.0,88,0.00,,,0.00,Wunderground v.1.15,2013-04-23 14:48:00,
2013-04-23 09:49:00,25.9,23.1,30.17,North,352,14.0,24.0,89,0.00,,,0.00,Wunderground v.1.15,2013-04-23 14:49:00,
2013-04-23 09:51:00,25.9,23.1,30.17,NNW,342,14.0,24.0,89,0.00,,,0.00,Wunderground v.1.15,2013-04-23 14:51:00,
2013-04-23 09:56:00,26.1,23.3,30.17,North,8,14.0,24.0,89,0.00,,,0.00,Wunderground v.1.15,2013-04-23 14:56:00,
2013-04-23 09:58:00,26.1,23.0,30.17,NNW,347,14.0,24.0,88,0.00,,,0.00,Wunderground v.1.15,2013-04-23 14:58:00,
2013-04-23 10:02:00,26.2,23.1,30.17,North,6,12.0,24.0,88,0.00,,,0.00,Wunderground v.1.15,2013-04-23 15:02:00,
2013-04-23 10:04:00,26.2,23.1,30.17,NNW,338,12.0,24.0,88,0.00,,,0.00,Wunderground v.1.15,2013-04-23 15:04:00,
2013-04-23 10:08:00,26.4,23.6,30.17,North,352,11.0,24.0,89,0.00,,,0.00,Wunderground v.1.15,2013-04-23 15:08:00,
2013-04-23 10:09:00,26.4,23.3,30.17,NNE,26,12.0,24.0,88,0.00,,,0.00,Wunderground v.1.15,2013-04-23 15:09:00,
2013-04-23 10:11:00,26.6,23.8,30.17,North,6,12.0,24.0,89,0.00,,,0.00,Wunderground v.1.15,2013-04-23 15:11:00,
2013-04-23 10:14:00,26.6,23.5,30.17,North,355,13.0,24.0,88,0.00,,,0.00,Wunderground v.1.15,2013-04-23 15:14:00,
2013-04-23 10:16:00,26.6,23.5,30.17,NNW,339,13.0,24.0,88,0.00,,,0.00,Wunderground v.1.15,2013-04-23 15:16:00,
2013-04-23 10:22:00,26.9,23.8,30.17,NNW,339,13.0,24.0,88,0.00,,,0.00,Wunderground v.1.15,2013-04-23 15:22:00,
2013-04-23 10:24:00,27.1,24.0,30.17,North,352,13.0,24.0,88,0.00,,,0.00,Wunderground v.1.15,2013-04-23 15:24:00,
2013-04-23 10:26:00,27.1,24.0,30.17,North,8,12.0,24.0,88,0.00,,,0.00,Wunderground v.1.15,2013-04-23 15:26:00,
2013-04-23 10:28:00,27.1,24.0,30.17,NNW,338,13.0,24.0,88,0.00,,,0.00,Wunderground v.1.15,2013-04-23 15:28:00,
2013-04-23 10:30:00,27.1,23.7,30.17,NNW,342,13.0,24.0,87,0.00,,,0.00,Wunderground v.1.15,2013-04-23 15:30:00,
2013-04-23 10:33:00,27.3,24.5,30.17,NNE,20,13.0,24.0,89,0.00,,,0.00,Wunderground v.1.15,2013-04-23 15:33:00,
2013-04-23 10:36:00,27.4,24.3,30.17,NNW,336,13.0,24.0,88,0.00,,,0.00,Wunderground v.1.15,2013-04-23 15:36:00,
2013-04-23 10:40:00,27.4,24.3,30.17,NNW,335,12.0,24.0,88,0.00,,,0.00,Wunderground v.1.15,2013-04-23 15:40:00,
2013-04-23 10:42:00,27.3,23.7,30.17,NNW,342,12.0,24.0,86,0.00,,,0.00,Wunderground v.1.15,2013-04-23 15:42:00,
2013-04-23 10:44:00,27.4,24.0,30.17,NW,325,12.0,24.0,87,0.00,,,0.00,Wunderground v.1.15,2013-04-23 15:44:00,
2013-04-23 10:46:00,27.4,24.0,30.17,North,350,11.0,24.0,87,0.00,,,0.00,Wunderground v.1.15,2013-04-23 15:46:00,
2013-04-23 10:50:00,27.7,24.6,30.17,NNW,342,11.0,11.0,88,0.00,,,0.00,Wunderground v.1.15,2013-04-23 15:50:00,
2013-04-23 10:52:00,27.8,24.7,30.17,NNW,344,10.0,24.0,88,0.00,,,0.00,Wunderground v.1.15,2013-04-23 15:52:00,
2013-04-23 10:53:00,28.0,24.6,30.17,North,354,11.0,24.0,87,0.00,,,0.00,Wunderground v.1.15,2013-04-23 15:53:00,
2013-04-23 10:55:00,28.0,24.6,30.17,NNW,343,11.0,24.0,87,0.00,,,0.00,Wunderground v.1.15,2013-04-23 15:55:00,
2013-04-23 11:00:00,28.0,24.9,30.18,NNW,342,12.0,24.0,88,0.00,,,0.00,Wunderground v.1.15,2013-04-23 16:00:00,
2013-04-23 11:02:00,28.0,24.4,30.18,North,1,12.0,24.0,86,0.00,,,0.00,Wunderground v.1.15,2013-04-23 16:02:00,
2013-04-23 11:04:00,27.9,24.3,30.18,NNW,338,12.0,24.0,86,0.00,,,0.00,Wunderground v.1.15,2013-04-23 16:04:00,
2013-04-23 11:06:00,27.9,24.3,30.18,NNW,335,12.0,24.0,86,0.00,,,0.00,Wunderground v.1.15,2013-04-23 16:06:00,
2013-04-23 11:08:00,27.8,24.2,30.18,NNW,333,12.0,24.0,86,0.00,,,0.00,Wunderground v.1.15,2013-04-23 16:08:00,
2013-04-23 11:10:00,27.8,24.2,30.17,North,3,12.0,24.0,86,0.00,,,0.00,Wunderground v.1.15,2013-04-23 16:10:00,
2013-04-23 11:12:00,27.7,24.1,30.17,NNW,332,12.0,24.0,86,0.00,,,0.00,Wunderground v.1.15,2013-04-23 16:12:00,
2013-04-23 11:13:00,27.8,24.4,30.18,NW,323,12.0,24.0,87,0.00,,,0.00,Wunderground v.1.15,2013-04-23 16:13:00,
2013-04-23 11:15:00,27.9,24.8,30.18,North,6,11.0,24.0,88,0.00,,,0.00,Wunderground v.1.15,2013-04-23 16:15:00,
2013-04-23 11:22:00,28.1,24.5,30.18,NNW,333,11.0,24.0,86,0.00,,,0.00,Wunderground v.1.15,2013-04-23 16:22:00,
2013-04-23 11:24:00,28.2,24.8,30.17,NNW,327,11.0,24.0,87,0.00,,,0.00,Wunderground v.1.15,2013-04-23 16:24:00,
2013-04-23 11:30:00,28.6,24.9,30.17,NNE,16,11.0,24.0,86,0.00,,,0.00,Wunderground v.1.15,2013-04-23 16:30:00,
2013-04-23 11:32:00,28.6,24.9,30.17,North,9,11.0,24.0,86,0.00,,,0.00,Wunderground v.1.15,2013-04-23 16:32:00,
2013-04-23 11:34:00,28.7,25.0,30.17,NNW,345,12.0,24.0,86,0.00,,,0.00,Wunderground v.1.15,2013-04-23 16:34:00,
2013-04-23 11:35:00,28.5,24.6,30.17,NW,325,12.0,24.0,85,0.00,,,0.00,Wunderground v.1.15,2013-04-23 16:35:00,
2013-04-23 11:37:00,28.6,24.9,30.17,NNW,327,12.0,24.0,86,0.00,,,0.00,Wunderground v.1.15,2013-04-23 16:37:00,
2013-04-23 11:42:00,28.6,24.9,30.17,NNW,344,11.0,24.0,86,0.00,,,0.00,Wunderground v.1.15,2013-04-23 16:42:00,
2013-04-23 11:48:00,29.0,25.6,30.17,North,354,11.0,24.0,87,0.00,,,0.00,Wunderground v.1.15,2013-04-23 16:48:00,
2013-04-23 11:50:00,29.2,25.8,30.17,NW,309,11.0,24.0,87,0.00,,,0.00,Wunderground v.1.15,2013-04-23 16:50:00,
2013-04-23 11:52:00,29.2,25.3,30.18,NNW,340,11.0,24.0,85,0.00,,,0.00,Wunderground v.1.15,2013-04-23 16:52:00,
2013-04-23 11:54:00,29.3,25.6,30.18,NW,319,10.0,24.0,86,0.00,,,0.00,Wunderground v.1.15,2013-04-23 16:54:00,
2013-04-23 11:56:00,29.4,25.7,30.18,NW,321,10.0,24.0,86,0.00,,,0.00,Wunderground v.1.15,2013-04-23 16:56:00,
2013-04-23 11:57:00,29.5,25.5,30.18,NNW,347,10.0,24.0,85,0.00,,,0.00,Wunderground v.1.15,2013-04-23 16:57:00,
2013-04-23 11:59:00,29.7,26.0,30.18,NW,316,11.0,24.0,86,0.00,,,0.00,Wunderground v.1.15,2013-04-23 16:59:00,
2013-04-23 12:02:00,29.7,25.7,30.18,NNW,334,11.0,24.0,85,0.00,,,0.00,Wunderground v.1.15,2013-04-23 17:02:00,
2013-04-23 12:04:00,29.7,26.0,30.18,NNW,336,11.0,24.0,86,0.00,,,0.00,Wunderground v.1.15,2013-04-23 17:04:00,
2013-04-23 12:08:00,29.8,25.6,30.17,NNW,334,11.0,24.0,84,0.00,,,0.00,Wunderground v.1.15,2013-04-23 17:08:00,
2013-04-23 12:10:00,29.8,25.8,30.17,NNW,335,11.0,11.0,85,0.00,,,0.00,Wunderground v.1.15,2013-04-23 17:10:00,
2013-04-23 12:16:00,30.2,26.2,30.17,NNW,328,11.0,12.0,85,0.00,,,0.00,Wunderground v.1.15,2013-04-23 17:16:00,
2013-04-23 12:17:00,30.4,26.7,30.17,NNW,329,11.0,13.0,86,0.00,,,0.00,Wunderground v.1.15,2013-04-23 17:17:00,
2013-04-23 12:19:00,30.3,25.8,30.17,NNW,342,11.0,11.0,83,0.00,,,0.00,Wunderground v.1.15,2013-04-23 17:19:00,
2013-04-23 12:24:00,30.2,25.9,30.17,NNW,338,11.0,14.0,84,0.00,,,0.00,Wunderground v.1.15,2013-04-23 17:24:00,
2013-04-23 12:26:00,30.2,25.7,30.17,NNW,339,12.0,14.0,83,0.00,,,0.00,Wunderground v.1.15,2013-04-23 17:26:00,
2013-04-23 12:28:00,30.3,26.0,30.16,NNW,344,12.0,14.0,84,0.00,,,0.00,Wunderground v.1.15,2013-04-23 17:28:00,
2013-04-23 12:32:00,30.3,25.8,30.17,NNW,334,11.0,12.0,83,0.00,,,0.00,Wunderground v.1.15,2013-04-23 17:32:00,
2013-04-23 12:34:00,30.5,26.2,30.17,NNW,345,11.0,16.0,84,0.00,,,0.00,Wunderground v.1.15,2013-04-23 17:34:00,
2013-04-23 12:36:00,30.5,26.0,30.17,NNW,336,11.0,16.0,83,0.00,,,0.00,Wunderground v.1.15,2013-04-23 17:36:00,
2013-04-23 12:38:00,30.6,26.3,30.17,NNW,338,11.0,16.0,84,0.00,,,0.00,Wunderground v.1.15,2013-04-23 17:38:00,
2013-04-23 12:41:00,30.8,26.5,30.16,North,349,12.0,12.0,84,0.00,,,0.00,Wunderground v.1.15,2013-04-23 17:41:00,
2013-04-23 12:44:00,31.0,27.0,30.17,NW,320,12.0,12.0,85,0.00,,,0.00,Wunderground v.1.15,2013-04-23 17:44:00,
2013-04-23 12:46:00,31.3,27.6,30.17,NW,326,11.0,15.0,86,0.00,,,0.00,Wunderground v.1.15,2013-04-23 17:46:00,
2013-04-23 12:48:00,31.2,26.6,30.16,NW,320,12.0,15.0,83,0.00,,,0.00,Wunderground v.1.15,2013-04-23 17:48:00,
2013-04-23 12:50:00,31.2,26.6,30.16,North,11,12.0,12.0,83,0.00,,,0.00,Wunderground v.1.15,2013-04-23 17:50:00,
2013-04-23 12:54:00,31.3,27.0,30.16,NNW,344,12.0,13.0,84,0.00,,,0.00,Wunderground v.1.15,2013-04-23 17:54:00,
2013-04-23 12:56:00,31.4,27.1,30.16,NW,326,13.0,13.0,84,0.00,,,0.00,Wunderground v.1.15,2013-04-23 17:56:00,
2013-04-23 13:00:00,31.6,27.0,30.16,NNW,344,12.0,13.0,83,0.00,,,0.00,Wunderground v.1.15,2013-04-23 18:00:00,
2013-04-23 13:01:00,31.7,27.4,30.16,NNW,338,12.0,16.0,84,0.00,,,0.00,Wunderground v.1.15,2013-04-23 18:01:00,
2013-04-23 13:03:00,31.8,27.5,30.16,NNW,339,12.0,16.0,84,0.00,,,0.00,Wunderground v.1.15,2013-04-23 18:03:00,
2013-04-23 13:10:00,32.0,27.4,30.16,NNW,344,12.0,16.0,83,0.00,,,0.00,Wunderground v.1.15,2013-04-23 18:10:00,
2013-04-23 13:12:00,32.1,27.5,30.16,NNW,333,12.0,16.0,83,0.00,,,0.00,Wunderground v.1.15,2013-04-23 18:12:00,
2013-04-23 13:14:00,32.2,27.6,30.16,NNW,342,12.0,16.0,83,0.00,,,0.00,Wunderground v.1.15,2013-04-23 18:14:00,
2013-04-23 13:18:00,32.4,28.1,30.15,NNW,344,12.0,16.0,84,0.00,,,0.00,Wunderground v.1.15,2013-04-23 18:18:00,
2013-04-23 13:20:00,32.5,28.2,30.15,NNW,347,12.0,18.0,84,0.00,,,0.00,Wunderground v.1.15,2013-04-23 18:20:00,
2013-04-23 13:21:00,32.5,27.3,30.15,NNW,332,12.0,18.0,81,0.00,,,0.00,Wunderground v.1.15,2013-04-23 18:21:00,
2013-04-23 13:23:00,32.4,27.5,30.15,NNW,329,12.0,18.0,82,0.00,,,0.00,Wunderground v.1.15,2013-04-23 18:23:00,
2013-04-23 13:26:00,32.5,27.9,30.15,North,355,12.0,18.0,83,0.00,,,0.00,Wunderground v.1.15,2013-04-23 18:26:00,
2013-04-23 13:32:00,33.0,28.7,30.14,NNW,334,12.0,16.0,84,0.00,,,0.00,Wunderground v.1.15,2013-04-23 18:32:00,
2013-04-23 13:34:00,32.8,27.6,30.14,NNW,344,12.0,16.0,81,0.00,,,0.00,Wunderground v.1.15,2013-04-23 18:34:00,
2013-04-23 13:40:00,33.0,28.4,30.15,NNW,335,12.0,12.0,83,0.00,,,0.00,Wunderground v.1.15,2013-04-23 18:40:00,
2013-04-23 13:42:00,33.2,28.6,30.15,North,9,12.0,16.0,83,0.00,,,0.00,Wunderground v.1.15,2013-04-23 18:42:00,
2013-04-23 13:45:00,33.3,29.0,30.15,NNE,27,11.0,16.0,84,0.00,,,0.00,Wunderground v.1.15,2013-04-23 18:45:00,
2013-04-23 13:48:00,33.4,28.5,30.15,NNW,328,11.0,16.0,82,0.00,,,0.00,Wunderground v.1.15,2013-04-23 18:48:00,
2013-04-23 13:50:00,33.4,28.8,30.15,North,352,12.0,12.0,83,0.00,,,0.00,Wunderground v.1.15,2013-04-23 18:50:00,
2013-04-23 13:52:00,33.4,28.5,30.14,NNE,15,12.0,16.0,82,0.00,,,0.00,Wunderground v.1.15,2013-04-23 18:52:00,
2013-04-23 13:54:00,33.5,28.6,30.14,NW,322,12.0,16.0,82,0.00,,,0.00,Wunderground v.1.15,2013-04-23 18:54:00,
2013-04-23 13:56:00,33.5,28.6,30.14,NNE,15,12.0,16.0,82,0.00,,,0.00,Wunderground v.1.15,2013-04-23 18:56:00,
2013-04-23 13:58:00,33.7,28.8,30.15,NNW,334,12.0,16.0,82,0.00,,,0.00,Wunderground v.1.15,2013-04-23 18:58:00,
2013-04-23 14:04:00,33.6,27.8,30.15,North,354,12.0,16.0,79,0.00,,,0.00,Wunderground v.1.15,2013-04-23 19:04:00,
2013-04-23 14:05:00,33.7,28.8,30.15,NNW,343,12.0,16.0,82,0.00,,,0.00,Wunderground v.1.15,2013-04-23 19:05:00,
2013-04-23 14:12:00,33.5,27.7,30.15,NW,311,13.0,16.0,79,0.00,,,0.00,Wunderground v.1.15,2013-04-23 19:12:00,
2013-04-23 14:14:00,33.5,27.7,30.15,NNE,23,13.0,16.0,79,0.00,,,0.00,Wunderground v.1.15,2013-04-23 19:14:00,
2013-04-23 14:16:00,33.4,27.3,30.15,NNW,332,14.0,16.0,78,0.00,,,0.00,Wunderground v.1.15,2013-04-23 19:16:00,
2013-04-23 14:18:00,33.3,27.5,30.15,NNW,333,14.0,16.0,79,0.00,,,0.00,Wunderground v.1.15,2013-04-23 19:18:00,
2013-04-23 14:20:00,33.4,28.2,30.14,North,349,13.0,16.0,81,0.00,,,0.00,Wunderground v.1.15,2013-04-23 19:20:00,
2013-04-23 14:22:00,33.5,28.0,30.14,North,356,13.0,16.0,80,0.00,,,0.00,Wunderground v.1.15,2013-04-23 19:22:00,
2013-04-23 14:27:00,33.6,28.1,30.14,NNW,334,13.0,16.0,80,0.00,,,0.00,Wunderground v.1.15,2013-04-23 19:27:00,
2013-04-23 14:30:00,33.5,26.7,30.14,NNW,330,13.0,13.0,76,0.00,,,0.00,Wunderground v.1.15,2013-04-23 19:30:00,
2013-04-23 14:34:00,33.7,27.9,30.14,North,349,13.0,16.0,79,0.00,,,0.00,Wunderground v.1.15,2013-04-23 19:34:00,
2013-04-23 14:36:00,33.9,28.7,30.14,North,8,13.0,16.0,81,0.00,,,0.00,Wunderground v.1.15,2013-04-23 19:36:00,
2013-04-23 14:38:00,33.9,28.4,30.14,North,355,14.0,16.0,80,0.00,,,0.00,Wunderground v.1.15,2013-04-23 19:38:00,
2013-04-23 14:40:00,33.8,28.3,30.14,NNE,18,14.0,14.0,80,0.00,,,0.00,Wunderground v.1.15,2013-04-23 19:40:00,
2013-04-23 14:42:00,33.7,26.6,30.14,NNW,344,14.0,16.0,75,0.00,,,0.00,Wunderground v.1.15,2013-04-23 19:42:00,
2013-04-23 14:46:00,33.7,27.6,30.14,North,352,15.0,16.0,78,0.00,,,0.00,Wunderground v.1.15,2013-04-23 19:46:00,
2013-04-23 14:47:00,33.7,27.3,30.14,North,8,14.0,16.0,77,0.00,,,0.00,Wunderground v.1.15,2013-04-23 19:47:00,
2013-04-23 14:52:00,33.7,26.6,30.14,North,357,14.0,16.0,75,0.00,,,0.00,Wunderground v.1.15,2013-04-23 19:52:00,
2013-04-23 14:58:00,33.9,28.1,30.14,North,3,13.0,17.0,79,0.00,,,0.00,Wunderground v.1.15,2013-04-23 19:58:00,
2013-04-23 15:00:00,33.9,28.1,30.14,NNE,20,14.0,16.0,79,0.00,,,0.00,Wunderground v.1.15,2013-04-23 20:00:00,
2013-04-23 15:04:00,33.9,27.4,30.14,North,1,14.0,18.0,77,0.00,,,0.00,Wunderground v.1.15,2013-04-23 20:04:00,
2013-04-23 15:06:00,33.7,27.3,30.14,NNW,345,15.0,18.0,77,0.00,,,0.00,Wunderground v.1.15,2013-04-23 20:06:00,
2013-04-23 15:09:00,33.3,25.9,30.14,North,355,15.0,16.0,74,0.00,,,0.00,Wunderground v.1.15,2013-04-23 20:09:00,
2013-04-23 15:11:00,33.2,26.5,30.14,North,359,14.0,16.0,76,0.00,,,0.00,Wunderground v.1.15,2013-04-23 20:11:00,
2013-04-23 15:14:00,33.3,26.9,30.14,NNW,333,14.0,16.0,77,0.00,,,0.00,Wunderground v.1.15,2013-04-23 20:14:00,
2013-04-23 15:16:00,33.4,26.3,30.14,North,350,14.0,16.0,75,0.00,,,0.00,Wunderground v.1.15,2013-04-23 20:16:00,
2013-04-23 15:18:00,33.8,28.3,30.14,NNE,13,13.0,16.0,80,0.00,,,0.00,Wunderground v.1.15,2013-04-23 20:18:00,
2013-04-23 15:20:00,34.0,27.5,30.14,North,5,12.0,18.0,77,0.00,,,0.00,Wunderground v.1.15,2013-04-23 20:20:00,
2013-04-23 15:24:00,34.1,28.6,30.14,North,5,13.0,18.0,80,0.00,,,0.00,Wunderground v.1.15,2013-04-23 20:24:00,
2013-04-23 15:28:00,34.1,27.6,30.14,NNE,26,14.0,18.0,77,0.00,,,0.00,Wunderground v.1.15,2013-04-23 20:28:00,
2013-04-23 15:29:00,34.1,27.6,30.14,NNW,337,15.0,15.0,77,0.00,,,0.00,Wunderground v.1.15,2013-04-23 20:29:00,
2013-04-23 15:31:00,34.0,26.3,30.14,NNW,342,14.0,18.0,73,0.00,,,0.00,Wunderground v.1.15,2013-04-23 20:31:00,
2013-04-23 15:38:00,34.3,28.2,30.13,NNE,18,13.0,18.0,78,0.00,,,0.00,Wunderground v.1.15,2013-04-23 20:38:00,
2013-04-23 15:40:00,34.5,28.7,30.13,North,11,12.0,16.0,79,0.00,,,0.00,Wunderground v.1.15,2013-04-23 20:40:00,
2013-04-23 15:42:00,34.5,28.0,30.13,NNE,24,13.0,16.0,77,0.00,,,0.00,Wunderground v.1.15,2013-04-23 20:42:00,
2013-04-23 15:46:00,34.3,26.9,30.13,NNW,337,14.0,16.0,74,0.00,,,0.00,Wunderground v.1.15,2013-04-23 20:46:00,
2013-04-23 15:48:00,34.3,27.5,30.13,NNE,20,14.0,16.0,76,0.00,,,0.00,Wunderground v.1.15,2013-04-23 20:48:00,
2013-04-23 15:50:00,34.3,27.8,30.13,North,6,15.0,15.0,77,0.00,,,0.00,Wunderground v.1.15,2013-04-23 20:50:00,
2013-04-23 15:51:00,34.3,27.8,30.13,NW,314,14.0,16.0,77,0.00,,,0.00,Wunderground v.1.15,2013-04-23 20:51:00,
2013-04-23 15:56:00,34.4,27.9,30.13,NNW,346,13.0,16.0,77,0.00,,,0.00,Wunderground v.1.15,2013-04-23 20:56:00,
2013-04-23 15:58:00,34.6,28.4,30.13,NNW,330,12.0,16.0,78,0.00,,,0.00,Wunderground v.1.15,2013-04-23 20:58:00,
2013-04-23 16:00:00,34.5,27.4,30.13,NNW,330,12.0,12.0,75,0.00,,,0.00,Wunderground v.1.15,2013-04-23 21:00:00,
2013-04-23 16:06:00,34.6,27.8,30.13,North,352,12.0,16.0,76,0.00,,,0.00,Wunderground v.1.15,2013-04-23 21:06:00,
2013-04-23 16:10:00,34.6,26.5,30.13,North,352,12.0,16.0,72,0.00,,,0.00,Wunderground v.1.15,2013-04-23 21:10:00,
2013-04-23 16:13:00,34.3,26.5,30.13,NNW,343,13.0,18.0,73,0.00,,,0.00,Wunderground v.1.15,2013-04-23 21:13:00,
2013-04-23 16:15:00,34.3,26.9,30.13,North,350,13.0,18.0,74,0.00,,,0.00,Wunderground v.1.15,2013-04-23 21:15:00,
2013-04-23 16:18:00,34.3,26.9,30.13,NW,309,13.0,18.0,74,0.00,,,0.00,Wunderground v.1.15,2013-04-23 21:18:00,
2013-04-23 16:22:00,34.3,26.9,30.14,NNW,330,13.0,16.0,74,0.00,,,0.00,Wunderground v.1.15,2013-04-23 21:22:00,
2013-04-23 16:24:00,34.5,27.7,30.14,North,352,12.0,16.0,76,0.00,,,0.00,Wunderground v.1.15,2013-04-23 21:24:00,
2013-04-23 16:28:00,34.5,26.4,30.14,NW,322,11.0,16.0,72,0.00,,,0.00,Wunderground v.1.15,2013-04-23 21:28:00,
2013-04-23 16:30:00,34.5,27.1,30.14,NW,321,11.0,16.0,74,0.00,,,0.00,Wunderground v.1.15,2013-04-23 21:30:00,
2013-04-23 16:32:00,34.5,26.7,30.13,NNW,333,11.0,16.0,73,0.00,,,0.00,Wunderground v.1.15,2013-04-23 21:32:00,
2013-04-23 16:35:00,34.5,26.1,30.13,NNW,345,11.0,16.0,71,0.00,,,0.00,Wunderground v.1.15,2013-04-23 21:35:00,
2013-04-23 16:40:00,34.3,26.5,30.14,NNW,338,12.0,16.0,73,0.00,,,0.00,Wunderground v.1.15,2013-04-23 21:40:00,
2013-04-23 16:46:00,34.0,25.2,30.13,North,10,12.0,16.0,70,0.00,,,0.00,Wunderground v.1.15,2013-04-23 21:46:00,
2013-04-23 16:48:00,34.1,25.3,30.13,North,354,11.0,16.0,70,0.00,,,0.00,Wunderground v.1.15,2013-04-23 21:48:00,
2013-04-23 16:52:00,34.1,25.0,30.13,North,352,11.0,13.0,69,0.00,,,0.00,Wunderground v.1.15,2013-04-23 21:52:00,
2013-04-23 16:54:00,34.2,25.4,30.13,NNW,336,12.0,16.0,70,0.00,,,0.00,Wunderground v.1.15,2013-04-23 21:54:00,
2013-04-23 16:57:00,34.2,24.7,30.12,NNW,347,12.0,16.0,68,0.00,,,0.00,Wunderground v.1.15,2013-04-23 21:57:00,
2013-04-23 17:00:00,34.3,25.5,30.13,North,10,12.0,16.0,70,0.00,,,0.00,Wunderground v.1.15,2013-04-23 22:00:00,
2013-04-23 17:04:00,34.4,26.3,30.13,North,4,12.0,16.0,72,0.00,,,0.00,Wunderground v.1.15,2013-04-23 22:04:00,
2013-04-23 17:06:00,34.5,26.1,30.13,North,359,12.0,16.0,71,0.00,,,0.00,Wunderground v.1.15,2013-04-23 22:06:00,
2013-04-23 17:10:00,34.5,25.0,30.12,North,358,12.0,16.0,68,0.00,,,0.00,Wunderground v.1.15,2013-04-23 22:10:00,
2013-04-23 17:12:00,34.3,25.5,30.12,North,352,12.0,16.0,70,0.00,,,0.00,Wunderground v.1.15,2013-04-23 22:12:00,
2013-04-23 17:16:00,34.4,25.3,30.12,North,358,13.0,16.0,69,0.00,,,0.00,Wunderground v.1.15,2013-04-23 22:16:00,
2013-04-23 17:17:00,34.4,25.3,30.12,North,351,13.0,16.0,69,0.00,,,0.00,Wunderground v.1.15,2013-04-23 22:17:00,
2013-04-23 17:22:00,34.4,24.9,30.12,NNW,340,12.0,16.0,68,0.00,,,0.00,Wunderground v.1.15,2013-04-23 22:22:00,
2013-04-23 17:24:00,34.4,24.2,30.12,NW,316,12.0,16.0,66,0.00,,,0.00,Wunderground v.1.15,2013-04-23 22:24:00,
2013-04-23 17:28:00,34.6,25.8,30.12,NW,314,11.0,16.0,70,0.00,,,0.00,Wunderground v.1.15,2013-04-23 22:28:00,
2013-04-23 17:30:00,34.6,25.8,30.12,NNW,332,11.0,16.0,70,0.00,,,0.00,Wunderground v.1.15,2013-04-23 22:30:00,
2013-04-23 17:32:00,34.6,25.8,30.12,NNW,345,11.0,16.0,70,0.00,,,0.00,Wunderground v.1.15,2013-04-23 22:32:00,
2013-04-23 17:36:00,34.4,24.9,30.12,NNW,333,11.0,16.0,68,0.00,,,0.00,Wunderground v.1.15,2013-04-23 22:36:00,
2013-04-23 17:37:00,34.3,24.8,30.12,North,352,12.0,16.0,68,0.00,,,0.00,Wunderground v.1.15,2013-04-23 22:37:00,
2013-04-23 17:39:00,34.3,24.5,30.12,NNE,14,12.0,12.0,67,0.00,,,0.00,Wunderground v.1.15,2013-04-23 22:39:00,
2013-04-23 17:42:00,34.4,24.9,30.12,NNW,337,12.0,13.0,68,0.00,,,0.00,Wunderground v.1.15,2013-04-23 22:42:00,
2013-04-23 17:44:00,34.4,25.3,30.12,NNW,338,11.0,16.0,69,0.00,,,0.00,Wunderground v.1.15,2013-04-23 22:44:00,
2013-04-23 17:46:00,34.3,24.1,30.12,NNW,339,11.0,16.0,66,0.00,,,0.00,Wunderground v.1.15,2013-04-23 22:46:00,
2013-04-23 17:48:00,34.2,23.3,30.12,North,4,11.0,16.0,64,0.00,,,0.00,Wunderground v.1.15,2013-04-23 22:48:00,
2013-04-23 17:52:00,34.2,25.4,30.12,North,11,12.0,15.0,70,0.00,,,0.00,Wunderground v.1.15,2013-04-23 22:52:00,
2013-04-23 17:54:00,34.1,23.9,30.12,North,11,12.0,16.0,66,0.00,,,0.00,Wunderground v.1.15,2013-04-23 22:54:00,
2013-04-23 17:58:00,33.9,24.4,30.12,NW,324,11.0,16.0,68,0.00,,,0.00,Wunderground v.1.15,2013-04-23 22:58:00,
2013-04-23 17:59:00,33.7,23.5,30.13,NNW,332,11.0,16.0,66,0.00,,,0.00,Wunderground v.1.15,2013-04-23 22:59:00,
2013-04-23 18:04:00,33.6,23.4,30.13,NNW,332,11.0,16.0,66,0.00,,,0.00,Wunderground v.1.15,2013-04-23 23:04:00,
2013-04-23 18:06:00,33.5,23.7,30.13,NNW,345,11.0,16.0,67,0.00,,,0.00,Wunderground v.1.15,2013-04-23 23:06:00,
2013-04-23 18:10:00,33.3,23.2,30.13,NW,323,11.0,16.0,66,0.00,,,0.00,Wunderground v.1.15,2013-04-23 23:10:00,
2013-04-23 18:12:00,33.3,23.5,30.13,NNW,336,10.0,16.0,67,0.00,,,0.00,Wunderground v.1.15,2013-04-23 23:12:00,
2013-04-23 18:14:00,33.4,24.0,30.13,NNW,345,10.0,16.0,68,0.00,,,0.00,Wunderground v.1.15,2013-04-23 23:14:00,
2013-04-23 18:16:00,33.4,23.6,30.13,NNW,329,10.0,16.0,67,0.00,,,0.00,Wunderground v.1.15,2013-04-23 23:16:00,
2013-04-23 18:18:00,33.4,23.6,30.13,North,3,10.0,16.0,67,0.00,,,0.00,Wunderground v.1.15,2013-04-23 23:18:00,
2013-04-23 18:21:00,33.4,23.3,30.13,North,360,11.0,16.0,66,0.00,,,0.00,Wunderground v.1.15,2013-04-23 23:21:00,
2013-04-23 18:23:00,33.4,23.3,30.13,NNW,327,11.0,16.0,66,0.00,,,0.00,Wunderground v.1.15,2013-04-23 23:23:00,
2013-04-23 18:28:00,33.4,23.3,30.13,NNW,335,11.0,16.0,66,0.00,,,0.00,Wunderground v.1.15,2013-04-23 23:28:00,
2013-04-23 18:32:00,33.3,23.9,30.13,NNW,338,10.0,16.0,68,0.00,,,0.00,Wunderground v.1.15,2013-04-23 23:32:00,
2013-04-23 18:34:00,33.3,24.6,30.12,NW,317,9.0,16.0,70,0.00,,,0.00,Wunderground v.1.15,2013-04-23 23:34:00,
2013-04-23 18:36:00,33.3,24.2,30.12,NNW,332,9.0,16.0,69,0.00,,,0.00,Wunderground v.1.15,2013-04-23 23:36:00,
2013-04-23 18:38:00,33.4,24.0,30.12,North,8,9.0,16.0,68,0.00,,,0.00,Wunderground v.1.15,2013-04-23 23:38:00,
2013-04-23 18:40:00,33.5,24.1,30.12,NNE,13,9.0,16.0,68,0.00,,,0.00,Wunderground v.1.15,2013-04-23 23:40:00,
2013-04-23 18:42:00,33.5,24.1,30.12,NW,316,9.0,16.0,68,0.00,,,0.00,Wunderground v.1.15,2013-04-23 23:42:00,
2013-04-23 18:44:00,33.4,24.0,30.13,NNW,343,9.0,16.0,68,0.00,,,0.00,Wunderground v.1.15,2013-04-23 23:44:00,
2013-04-23 18:47:00,33.3,23.9,30.13,NNW,347,10.0,16.0,68,0.00,,,0.00,Wunderground v.1.15,2013-04-23 23:47:00,
2013-04-23 18:49:00,33.3,23.9,30.12,NNW,339,10.0,10.0,68,0.00,,,0.00,Wunderground v.1.15,2013-04-23 23:49:00,
2013-04-23 18:56:00,33.3,23.2,30.12,NW,314,9.0,16.0,66,0.00,,,0.00,Wunderground v.1.15,2013-04-23 23:56:00,
2013-04-23 18:58:00,33.3,23.9,30.12,North,360,8.0,16.0,68,0.00,,,0.00,Wunderground v.1.15,2013-04-23 23:58:00,
2013-04-23 19:02:00,33.4,23.6,30.12,NNW,343,9.0,16.0,67,0.00,,,0.00,Wunderground v.1.15,2013-04-24 00:02:00,
2013-04-23 19:06:00,33.1,23.3,30.12,North,354,9.0,16.0,67,0.00,,,0.00,Wunderground v.1.15,2013-04-24 00:06:00,
2013-04-23 19:09:00,32.9,23.5,30.12,NNW,333,9.0,9.0,68,0.00,,,0.00,Wunderground v.1.15,2013-04-24 00:09:00,
2013-04-23 19:12:00,32.7,23.6,30.12,NNW,340,9.0,16.0,69,0.00,,,0.00,Wunderground v.1.15,2013-04-24 00:12:00,
2013-04-23 19:16:00,32.5,24.1,30.12,North,352,9.0,16.0,71,0.00,,,0.00,Wunderground v.1.15,2013-04-24 00:16:00,
2013-04-23 19:18:00,32.4,24.7,30.12,NNW,330,9.0,16.0,73,0.00,,,0.00,Wunderground v.1.15,2013-04-24 00:18:00,
2013-04-23 19:24:00,32.3,23.9,30.12,NNE,26,9.0,16.0,71,0.00,,,0.00,Wunderground v.1.15,2013-04-24 00:24:00,
2013-04-23 19:26:00,32.2,23.8,30.12,NNW,348,9.0,16.0,71,0.00,,,0.00,Wunderground v.1.15,2013-04-24 00:26:00,
2013-04-23 19:28:00,32.3,24.3,30.12,NNW,347,8.0,16.0,72,0.00,,,0.00,Wunderground v.1.15,2013-04-24 00:28:00,
2013-04-23 19:29:00,32.3,24.9,30.12,NE,54,8.0,16.0,74,0.00,,,0.00,Wunderground v.1.15,2013-04-24 00:29:00,
2013-04-23 19:31:00,32.4,25.0,30.12,NNW,334,7.0,16.0,74,0.00,,,0.00,Wunderground v.1.15,2013-04-24 00:31:00,
2013-04-23 19:38:00,32.4,25.0,30.12,NNW,333,7.0,16.0,74,0.00,,,0.00,Wunderground v.1.15,2013-04-24 00:38:00,
2013-04-23 19:42:00,32.4,25.4,30.12,NNW,342,6.0,9.0,75,0.00,,,0.00,Wunderground v.1.15,2013-04-24 00:42:00,
2013-04-23 19:44:00,32.3,24.9,30.12,NNW,327,7.0,16.0,74,0.00,,,0.00,Wunderground v.1.15,2013-04-24 00:44:00,
2013-04-23 19:46:00,32.2,24.5,30.12,NW,321,7.0,16.0,73,0.00,,,0.00,Wunderground v.1.15,2013-04-24 00:46:00,
2013-04-23 19:48:00,32.1,24.7,30.12,NNW,337,8.0,16.0,74,0.00,,,0.00,Wunderground v.1.15,2013-04-24 00:48:00,
2013-04-23 19:51:00,31.9,25.5,30.12,NW,316,8.0,16.0,77,0.00,,,0.00,Wunderground v.1.15,2013-04-24 00:51:00,
2013-04-23 19:56:00,31.8,25.4,30.13,NW,321,9.0,16.0,77,0.00,,,0.00,Wunderground v.1.15,2013-04-24 00:56:00,
2013-04-23 19:58:00,31.7,25.6,30.13,NW,318,9.0,16.0,78,0.00,,,0.00,Wunderground v.1.15,2013-04-24 00:58:00,
2013-04-23 20:00:00,31.6,25.5,30.13,NNW,335,9.0,9.0,78,0.00,,,0.00,Wunderground v.1.15,2013-04-24 01:00:00,
2013-04-23 20:04:00,31.4,25.0,30.13,NW,314,9.0,16.0,77,0.00,,,0.00,Wunderground v.1.15,2013-04-24 01:04:00,
2013-04-23 20:08:00,31.2,25.1,30.13,NNW,328,9.0,16.0,78,0.00,,,0.00,Wunderground v.1.15,2013-04-24 01:08:00,
2013-04-23 20:10:00,31.1,25.0,30.13,NNW,328,9.0,16.0,78,0.00,,,0.00,Wunderground v.1.15,2013-04-24 01:10:00,
2013-04-23 20:13:00,31.0,24.9,30.13,NW,316,9.0,16.0,78,0.00,,,0.00,Wunderground v.1.15,2013-04-24 01:13:00,
2013-04-23 20:18:00,30.8,24.7,30.13,NW,324,9.0,16.0,78,0.00,,,0.00,Wunderground v.1.15,2013-04-24 01:18:00,
2013-04-23 20:20:00,30.8,25.1,30.13,NW,316,9.0,9.0,79,0.00,,,0.00,Wunderground v.1.15,2013-04-24 01:20:00,
2013-04-23 20:24:00,30.6,24.9,30.13,NW,321,8.0,16.0,79,0.00,,,0.00,Wunderground v.1.15,2013-04-24 01:24:00,
2013-04-23 20:26:00,30.5,24.8,30.13,NW,315,8.0,16.0,79,0.00,,,0.00,Wunderground v.1.15,2013-04-24 01:26:00,
2013-04-23 20:30:00,30.4,25.0,30.13,NW,318,7.0,16.0,80,0.00,,,0.00,Wunderground v.1.15,2013-04-24 01:30:00,
2013-04-23 20:32:00,30.3,24.6,30.13,NW,312,7.0,16.0,79,0.00,,,0.00,Wunderground v.1.15,2013-04-24 01:32:00,
2013-04-23 20:33:00,30.4,25.0,30.13,NW,316,8.0,16.0,80,0.00,,,0.00,Wunderground v.1.15,2013-04-24 01:33:00,
2013-04-23 20:38:00,30.2,25.1,30.13,NNW,328,7.0,16.0,81,0.00,,,0.00,Wunderground v.1.15,2013-04-24 01:38:00,
2013-04-23 20:40:00,30.2,25.1,30.13,NW,324,7.0,7.0,81,0.00,,,0.00,Wunderground v.1.15,2013-04-24 01:40:00,
2013-04-23 20:46:00,30.0,25.2,30.13,NNW,331,7.0,16.0,82,0.00,,,0.00,Wunderground v.1.15,2013-04-24 01:46:00,
2013-04-23 20:48:00,29.9,25.1,30.13,NNW,328,7.0,16.0,82,0.00,,,0.00,Wunderground v.1.15,2013-04-24 01:48:00,
2013-04-23 20:50:00,29.9,25.1,30.13,NW,311,6.0,6.0,82,0.00,,,0.00,Wunderground v.1.15,2013-04-24 01:50:00,
2013-04-23 20:52:00,29.8,25.0,30.13,NW,317,6.0,16.0,82,0.00,,,0.00,Wunderground v.1.15,2013-04-24 01:52:00,
2013-04-23 20:53:00,29.7,24.9,30.13,NW,318,6.0,16.0,82,0.00,,,0.00,Wunderground v.1.15,2013-04-24 01:53:00,
2013-04-23 21:00:00,29.7,24.6,30.13,NW,317,7.0,16.0,81,0.00,,,0.00,Wunderground v.1.15,2013-04-24 02:00:00,
2013-04-23 21:04:00,29.6,24.5,30.13,NNW,332,7.0,16.0,81,0.00,,,0.00,Wunderground v.1.15,2013-04-24 02:04:00,
2013-04-23 21:06:00,29.6,25.1,30.13,NW,316,7.0,16.0,83,0.00,,,0.00,Wunderground v.1.15,2013-04-24 02:06:00,
2013-04-23 21:10:00,29.4,25.2,30.13,NW,312,6.0,6.0,84,0.00,,,0.00,Wunderground v.1.15,2013-04-24 02:10:00,
2013-04-23 21:11:00,29.3,25.1,30.13,NW,307,5.0,8.0,84,0.00,,,0.00,Wunderground v.1.15,2013-04-24 02:11:00,
2013-04-23 21:16:00,29.3,24.8,30.13,NW,307,6.0,16.0,83,0.00,,,0.00,Wunderground v.1.15,2013-04-24 02:16:00,
2013-04-23 21:18:00,29.2,24.7,30.13,WNW,302,6.0,16.0,83,0.00,,,0.00,Wunderground v.1.15,2013-04-24 02:18:00,
2013-04-23 21:26:00,29.0,24.8,30.13,NW,309,6.0,16.0,84,0.00,,,0.00,Wunderground v.1.15,2013-04-24 02:26:00,
2013-04-23 21:31:00,28.9,24.4,30.13,NW,306,6.0,16.0,83,0.00,,,0.00,Wunderground v.1.15,2013-04-24 02:31:00,
2013-04-23 21:34:00,29.0,24.2,30.13,NW,308,7.0,16.0,82,0.00,,,0.00,Wunderground v.1.15,2013-04-24 02:34:00,
2013-04-23 21:36:00,29.0,24.5,30.13,WNW,301,7.0,16.0,83,0.00,,,0.00,Wunderground v.1.15,2013-04-24 02:36:00,
2013-04-23 21:42:00,29.0,24.5,30.13,NW,319,8.0,16.0,83,0.00,,,0.00,Wunderground v.1.15,2013-04-24 02:42:00,
2013-04-23 21:49:00,28.9,24.4,30.13,NW,324,7.0,7.0,83,0.00,,,0.00,Wunderground v.1.15,2013-04-24 02:49:00,
2013-04-23 21:52:00,28.8,24.3,30.13,NW,319,7.0,16.0,83,0.00,,,0.00,Wunderground v.1.15,2013-04-24 02:52:00,
2013-04-23 21:54:00,28.8,24.3,30.13,NNW,335,7.0,16.0,83,0.00,,,0.00,Wunderground v.1.15,2013-04-24 02:54:00,
2013-04-23 22:00:00,28.7,24.5,30.13,NW,324,7.0,7.0,84,0.00,,,0.00,Wunderground v.1.15,2013-04-24 03:00:00,
2013-04-23 22:04:00,28.6,24.1,30.13,NW,306,7.0,16.0,83,0.00,,,0.00,Wunderground v.1.15,2013-04-24 03:04:00,
2013-04-23 22:06:00,28.6,24.4,30.13,WNW,298,6.0,16.0,84,0.00,,,0.00,Wunderground v.1.15,2013-04-24 03:06:00,
2013-04-23 22:10:00,28.5,24.3,30.13,NW,314,6.0,6.0,84,0.00,,,0.00,Wunderground v.1.15,2013-04-24 03:10:00,
2013-04-23 22:12:00,28.5,24.3,30.13,NW,324,6.0,16.0,84,0.00,,,0.00,Wunderground v.1.15,2013-04-24 03:12:00,
2013-04-23 22:16:00,28.3,24.1,30.13,NW,324,6.0,16.0,84,0.00,,,0.00,Wunderground v.1.15,2013-04-24 03:16:00,
2013-04-23 22:20:00,28.3,24.1,30.12,NW,306,6.0,6.0,84,0.00,,,0.00,Wunderground v.1.15,2013-04-24 03:20:00,
2013-04-23 22:22:00,28.3,24.1,30.13,WNW,301,6.0,7.0,84,0.00,,,0.00,Wunderground v.1.15,2013-04-24 03:22:00,
2013-04-23 22:25:00,28.3,24.1,30.12,NW,306,6.0,16.0,84,0.00,,,0.00,Wunderground v.1.15,2013-04-24 03:25:00,
2013-04-23 22:29:00,28.2,24.0,30.12,NW,309,5.0,16.0,84,0.00,,,0.00,Wunderground v.1.15,2013-04-24 03:29:00,
2013-04-23 22:32:00,28.1,23.9,30.12,NW,321,5.0,16.0,84,0.00,,,0.00,Wunderground v.1.15,2013-04-24 03:32:00,
2013-04-23 22:34:00,28.0,23.8,30.12,NW,305,5.0,16.0,84,0.00,,,0.00,Wunderground v.1.15,2013-04-24 03:34:00,
2013-04-23 22:38:00,27.9,23.7,30.12,WNW,301,5.0,16.0,84,0.00,,,0.00,Wunderground v.1.15,2013-04-24 03:38:00,
2013-04-23 22:40:00,27.9,23.7,30.12,WNW,302,5.0,16.0,84,0.00,,,0.00,Wunderground v.1.15,2013-04-24 03:40:00,
2013-04-23 22:46:00,27.8,23.6,30.12,NW,305,5.0,16.0,84,0.00,,,0.00,Wunderground v.1.15,2013-04-24 03:46:00,
2013-04-23 22:47:00,27.7,23.8,30.12,NW,312,5.0,16.0,85,0.00,,,0.00,Wunderground v.1.15,2013-04-24 03:47:00,
2013-04-23 22:49:00,27.6,23.7,30.12,WNW,300,5.0,16.0,85,0.00,,,0.00,Wunderground v.1.15,2013-04-24 03:49:00,
2013-04-23 22:56:00,27.4,23.5,30.12,WNW,301,4.0,16.0,85,0.00,,,0.00,Wunderground v.1.15,2013-04-24 03:56:00,
2013-04-23 23:00:00,27.4,23.5,30.12,WNW,297,4.0,16.0,85,0.00,,,0.00,Wunderground v.1.15,2013-04-24 04:00:00,
2013-04-23 23:02:00,27.4,23.5,30.12,WNW,295,3.0,16.0,85,0.00,,,0.00,Wunderground v.1.15,2013-04-24 04:02:00,
2013-04-23 23:05:00,27.3,23.7,30.12,WNW,287,3.0,16.0,86,0.00,,,0.00,Wunderground v.1.15,2013-04-24 04:05:00,
2013-04-23 23:07:00,27.3,23.7,30.12,WNW,293,3.0,16.0,86,0.00,,,0.00,Wunderground v.1.15,2013-04-24 04:07:00,
2013-04-23 23:12:00,27.2,23.6,30.12,WNW,286,3.0,16.0,86,0.00,,,0.00,Wunderground v.1.15,2013-04-24 04:12:00,
2013-04-23 23:14:00,27.1,23.5,30.12,WNW,285,3.0,16.0,86,0.00,,,0.00,Wunderground v.1.15,2013-04-24 04:14:00,
2013-04-23 23:18:00,27.0,23.6,30.12,WNW,283,2.0,16.0,87,0.00,,,0.00,Wunderground v.1.15,2013-04-24 04:18:00,
2013-04-23 23:24:00,26.9,23.5,30.12,West,280,2.0,16.0,87,0.00,,,0.00,Wunderground v.1.15,2013-04-24 04:24:00,
2013-04-23 23:26:00,26.9,23.5,30.11,WNW,294,3.0,16.0,87,0.00,,,0.00,Wunderground v.1.15,2013-04-24 04:26:00,
2013-04-23 23:27:00,26.9,23.5,30.12,WNW,288,3.0,16.0,87,0.00,,,0.00,Wunderground v.1.15,2013-04-24 04:27:00,
2013-04-23 23:29:00,26.9,23.5,30.11,WNW,293,3.0,16.0,87,0.00,,,0.00,Wunderground v.1.15,2013-04-24 04:29:00,
2013-04-23 23:32:00,26.8,23.4,30.11,WNW,291,2.0,16.0,87,0.00,,,0.00,Wunderground v.1.15,2013-04-24 04:32:00,
2013-04-23 23:34:00,26.8,23.4,30.11,WNW,300,3.0,16.0,87,0.00,,,0.00,Wunderground v.1.15,2013-04-24 04:34:00,
2013-04-23 23:36:00,26.8,23.4,30.11,WNW,301,2.0,16.0,87,0.00,,,0.00,Wunderground v.1.15,2013-04-24 04:36:00,
2013-04-23 23:38:00,26.7,23.4,30.11,WNW,295,3.0,16.0,87,0.00,,,0.00,Wunderground v.1.15,2013-04-24 04:38:00,
2013-04-23 23:42:00,26.6,23.5,30.11,WNW,295,3.0,16.0,88,0.00,,,0.00,Wunderground v.1.15,2013-04-24 04:42:00,
2013-04-23 23:44:00,26.6,23.5,30.11,WNW,285,3.0,16.0,88,0.00,,,0.00,Wunderground v.1.15,2013-04-24 04:44:00,
2013-04-23 23:46:00,26.5,23.4,30.11,West,271,3.0,16.0,88,0.00,,,0.00,Wunderground v.1.15,2013-04-24 04:46:00,
2013-04-23 23:49:00,26.3,23.2,30.11,WNW,285,2.0,16.0,88,0.00,,,0.00,Wunderground v.1.15,2013-04-24 04:49:00,
2013-04-23 23:54:00,26.1,23.3,30.11,WNW,291,2.0,16.0,89,0.00,,,0.00,Wunderground v.1.15,2013-04-24 04:54:00,